| time (UTC) | temp C | wind direction | speed KPH | gust KPH | rain 1hr cm | rain 24hr cm | rain mn cm | humidity % | barometer mb |
| 20260504213041 | 13 | 81 | 14.5 | 35.4 | 0.00 | 0.00 | 0.00 | 81 | 1010.8 |
| 20260504211540 | 13 | 65 | 16.1 | 32.2 | 0.00 | 0.00 | 0.00 | 81 | 1010.6 |
| 20260504210054 | 13 | 77 | 12.9 | 35.4 | 0.00 | 0.00 | 0.00 | 80 | 1010.6 |
| 20260504204553 | 13 | 87 | 22.5 | 37.0 | 0.00 | 0.00 | 0.00 | 80 | 1010.6 |
| 20260504203035 | 13 | 79 | 16.1 | 33.8 | 0.00 | 0.00 | 0.00 | 79 | 1010.5 |
| 20260504201530 | 13 | 112 | 19.3 | 35.4 | 0.00 | 0.00 | 0.00 | 77 | 1010.6 |
| 20260504200029 | 13 | 84 | 22.5 | 37.0 | 0.00 | 0.00 | 0.00 | 77 | 1010.7 |
| 20260504194527 | 13 | 65 | 19.3 | 38.6 | 0.00 | 0.00 | 0.00 | 78 | 1011.0 |
| 20260504193022 | 13 | 89 | 17.7 | 33.8 | 0.00 | 0.00 | 0.00 | 76 | 1010.9 |
| 20260504191521 | 14 | 88 | 14.5 | 38.6 | 0.00 | 0.00 | 0.00 | 76 | 1011.1 |
| 20260504190020 | 14 | 70 | 17.7 | 35.4 | 0.00 | 0.00 | 0.00 | 75 | 1011.2 |
| 20260504184515 | 14 | 102 | 14.5 | 35.4 | 0.00 | 0.00 | 0.00 | 76 | 1011.4 |
| 20260504183042 | 13 | 85 | 17.7 | 32.2 | 0.00 | 0.00 | 0.00 | 77 | 1011.7 |
| 20260504181539 | 13 | 73 | 17.7 | 37.0 | 0.00 | 0.00 | 0.00 | 77 | 1011.8 |
| 20260504180034 | 13 | 100 | 17.7 | 33.8 | 0.00 | 0.00 | 0.00 | 77 | 1012.0 |
| 20260504174537 | 13 | 77 | 11.3 | 35.4 | 0.00 | 0.00 | 0.00 | 79 | 1012.0 |
| 20260504173036 | 13 | 87 | 19.3 | 33.8 | 0.00 | 0.00 | 0.00 | 79 | 1012.0 |
| 20260504171537 | 13 | 94 | 9.7 | 29.0 | 0.00 | 0.00 | 0.00 | 81 | 1012.3 |
| 20260504160106 | 13 | 60 | 14.5 | 29.0 | 0.00 | 0.00 | 0.00 | 76 | 1013.0 |
| 20260504081539 | 10 | 110 | 9.7 | 20.9 | 0.00 | 0.00 | 0.00 | 70 | 1013.2 |
| 20260504044543 | 10 | 91 | 6.4 | 12.9 | 0.00 | 0.00 | 0.00 | 71 | 1012.4 |
| 20260504043052 | 10 | 105 | 3.2 | 9.7 | 0.00 | 0.00 | 0.00 | 71 | 1012.4 |
| 20260504041543 | 10 | 106 | 1.6 | 6.4 | 0.00 | 0.00 | 0.00 | 71 | 1012.3 |
| 20260504040041 | 10 | 131 | 3.2 | 9.7 | 0.00 | 0.00 | 0.00 | 70 | 1012.3 |
| 20260504034544 | 11 | 113 | 3.2 | 14.5 | 0.00 | 0.00 | 0.00 | 70 | 1012.2 |
| 20260504033035 | 10 | 114 | 3.2 | 9.7 | 0.00 | 0.00 | 0.00 | 73 | 1012.1 |
| 20260504031534 | 10 | 95 | 3.2 | 8.0 | 0.00 | 0.00 | 0.00 | 72 | 1012.1 |
| 20260504030034 | 10 | 105 | 1.6 | 6.4 | 0.00 | 0.00 | 0.00 | 66 | 1012.1 |
| 20260504024528 | 10 | 99 | 1.6 | 6.4 | 0.00 | 0.00 | 0.00 | 64 | 1012.1 |
| 20260504023025 | 10 | 99 | 3.2 | 8.0 | 0.00 | 0.00 | 0.00 | 55 | 1012.1 |
| 20260504021519 | 10 | 101 | 0.0 | 1.6 | 0.00 | 0.00 | 0.00 | 43 | 1012.0 |
| 20260504020030 | 11 | 101 | 0.0 | 3.2 | 0.00 | 0.00 | 0.00 | 43 | 1012.0 |
| 20260504014520 | 11 | 101 | 0.0 | 3.2 | 0.00 | 0.00 | 0.00 | 42 | 1011.9 |
| 20260504013013 | 11 | 101 | 0.0 | 3.2 | 0.00 | 0.00 | 0.00 | 41 | 1011.7 |
| 20260504011509 | 11 | 107 | 0.0 | 4.8 | 0.00 | 0.00 | 0.00 | 40 | 1011.5 |
| 20260504010010 | 11 | 107 | 0.0 | 3.2 | 0.00 | 0.00 | 0.00 | 39 | 1011.3 |
| 20260504004510 | 11 | 106 | 0.0 | 3.2 | 0.00 | 0.00 | 0.00 | 38 | 1011.2 |
| 20260504003001 | 12 | 106 | 0.0 | 3.2 | 0.00 | 0.00 | 0.00 | 38 | 1010.9 |
| 20260504001600 | 12 | 105 | 0.0 | 3.2 | 0.00 | 0.00 | 0.00 | 36 | 1010.8 |
| 20260504000106 | 12 | 107 | 0.0 | 8.0 | 0.00 | 0.00 | 0.00 | 35 | 1010.6 |
| 20260503234554 | 13 | 129 | 1.6 | 11.3 | 0.00 | 0.00 | 0.00 | 34 | 1010.4 |
| 20260503233051 | 13 | 95 | 3.2 | 19.3 | 0.00 | 0.00 | 0.00 | 33 | 1010.2 |
| 20260503231522 | 14 | 138 | 3.2 | 20.9 | 0.00 | 0.00 | 0.00 | 31 | 1010.0 |
| 20260503230035 | 15 | 137 | 9.7 | 24.1 | 0.00 | 0.00 | 0.00 | 32 | 1010.0 |
| 20260503224517 | 15 | 136 | 9.7 | 24.1 | 0.00 | 0.00 | 0.00 | 31 | 1009.9 |
| 20260503223016 | 15 | 194 | 6.4 | 17.7 | 0.00 | 0.00 | 0.00 | 32 | 1009.8 |
| 20260503221514 | 14 | 162 | 6.4 | 19.3 | 0.00 | 0.00 | 0.00 | 33 | 1009.8 |
| 20260503220014 | 14 | 147 | 8.0 | 27.4 | 0.00 | 0.00 | 0.00 | 33 | 1009.7 |
| 20260503214533 | 14 | 141 | 8.0 | 30.6 | 0.00 | 0.00 | 0.00 | 33 | 1009.6 |